Hourly Weather Bolshoe Mikushkino

Today, 24 July, Saturday

Time Temperature Precipitation Wind Pressure Humidity
00:00 +19°C° 0 mm 1 mps 739 mmHg 59%
01:00 +18°C° 0 mm 1 mps 740 mmHg 63%
02:00 +16°C° 0 mm 1 mps 740 mmHg 67%
03:00 +15°C° 0 mm 1 mps 740 mmHg 72%
04:00 +16°C° 0 mm 1 mps 740 mmHg 66%
05:00 +19°C° 0 mm 1 mps 740 mmHg 60%
06:00 +20°C° 0 mm 1 mps 740 mmHg 55%
07:00 +21°C° 0 mm 2 mps 741 mmHg 49%
08:00 +22°C° 0 mm 3 mps 741 mmHg 43%
09:00 +24°C° 0 mm 3 mps 741 mmHg 43%
10:00 +25°C° 0 mm 4 mps 741 mmHg 43%
11:00 +25°C° 0 mm 4 mps 741 mmHg 42%
12:00 +25°C° 0 mm 5 mps 741 mmHg 42%
13:00 +25°C° 0 mm 4 mps 741 mmHg 43%
14:00 +25°C° 0 mm 4 mps 741 mmHg 45%
15:00 +25°C° 0 mm 4 mps 741 mmHg 46%
16:00 +23°C° 0 mm 4 mps 742 mmHg 47%
17:00 +23°C° 0 mm 4 mps 742 mmHg 48%
18:00 +22°C° 0 mm 4 mps 742 mmHg 49%
19:00 +21°C° 0 mm 4 mps 743 mmHg 56%
20:00 +19°C° 0 mm 3 mps 744 mmHg 62%
21:00 +18°C° 0 mm 3 mps 744 mmHg 68%
22:00 +17°C° 0 mm 3 mps 744 mmHg 74%
23:00 +14°C° 0 mm 3 mps 745 mmHg 80%

Tomorrow, 25 July, Sunday

Time Temperature Precipitation Wind Pressure Humidity
00:00 +14°C° 0 mm 2 mps 745 mmHg 85%
01:00 +14°C° 0 mm 2 mps 746 mmHg 86%
02:00 +13°C° 0 mm 2 mps 746 mmHg 87%
03:00 +13°C° 0 mm 2 mps 747 mmHg 88%
04:00 +14°C° 0 mm 2 mps 747 mmHg 81%
05:00 +15°C° 0 mm 2 mps 748 mmHg 75%
06:00 +16°C° 0 mm 2 mps 748 mmHg 68%
07:00 +17°C° 0 mm 3 mps 749 mmHg 59%
08:00 +19°C° 0 mm 3 mps 749 mmHg 50%
09:00 +21°C° 0 mm 4 mps 749 mmHg 41%
10:00 +21°C° 0 mm 4 mps 750 mmHg 38%
11:00 +22°C° 0 mm 4 mps 750 mmHg 34%
12:00 +23°C° 0 mm 4 mps 750 mmHg 30%
13:00 +23°C° 0 mm 4 mps 750 mmHg 29%
14:00 +23°C° 0 mm 4 mps 750 mmHg 28%
15:00 +23°C° 0 mm 5 mps 750 mmHg 27%
16:00 +22°C° 0 mm 4 mps 751 mmHg 31%
17:00 +21°C° 0 mm 4 mps 751 mmHg 34%
18:00 +21°C° 0 mm 3 mps 751 mmHg 37%
19:00 +19°C° 0 mm 3 mps 751 mmHg 42%
20:00 +16°C° 0 mm 3 mps 752 mmHg 46%
21:00 +14°C° 0 mm 2 mps 752 mmHg 50%
22:00 +14°C° 0 mm 2 mps 752 mmHg 51%
23:00 +13°C° 0 mm 1 mps 752 mmHg 53%

Day after tomorrow, 26 July, Monday

Time Temperature Precipitation Wind Pressure Humidity
00:00 +13°C° 0 mm 1 mps 752 mmHg 54%
01:00 +13°C° 0 mm 1 mps 753 mmHg 56%
02:00 +12°C° 0 mm 1 mps 753 mmHg 57%
03:00 +12°C° 0 mm 1 mps 753 mmHg 58%
04:00 +13°C° 0 mm 1 mps 753 mmHg 55%
05:00 +14°C° 0 mm 0 mps 753 mmHg 52%
06:00 +15°C° 0 mm 0 mps 753 mmHg 49%
07:00 +19°C° 0 mm 1 mps 753 mmHg 45%
08:00 +20°C° 0 mm 2 mps 753 mmHg 40%
09:00 +21°C° 0 mm 2 mps 753 mmHg 36%
10:00 +22°C° 0 mm 3 mps 753 mmHg 34%
11:00 +24°C° 0 mm 3 mps 753 mmHg 31%
12:00 +25°C° 0 mm 3 mps 753 mmHg 29%
13:00 +25°C° 0 mm 3 mps 753 mmHg 30%
14:00 +25°C° 0 mm 4 mps 753 mmHg 31%
15:00 +25°C° 0 mm 4 mps 752 mmHg 32%
16:00 +24°C° 0 mm 3 mps 752 mmHg 36%
17:00 +22°C° 0 mm 3 mps 752 mmHg 39%
18:00 +22°C° 0 mm 3 mps 752 mmHg 42%
19:00 +20°C° 0 mm 2 mps 752 mmHg 46%
20:00 +18°C° 0 mm 2 mps 752 mmHg 49%
21:00 +18°C° 0 mm 1 mps 752 mmHg 52%
22:00 +18°C° 0 mm 1 mps 752 mmHg 53%
23:00 +18°C° 0 mm 1 mps 752 mmHg 54%

27 July, Tuesday

Time Temperature Precipitation Wind Pressure Humidity
00:00 +16°C° 0 mm 1 mps 752 mmHg 54%
01:00 +16°C° 0 mm 1 mps 751 mmHg 55%
02:00 +16°C° 0 mm 1 mps 751 mmHg 57%
03:00 +15°C° 0 mm 1 mps 751 mmHg 58%
04:00 +16°C° 0 mm 2 mps 751 mmHg 56%
05:00 +17°C° 0 mm 2 mps 751 mmHg 55%
06:00 +18°C° 0 mm 2 mps 751 mmHg 53%
07:00 +19°C° 0 mm 3 mps 751 mmHg 51%
08:00 +20°C° 0 mm 4 mps 751 mmHg 48%
09:00 +22°C° 0 mm 4 mps 751 mmHg 45%
10:00 +23°C° 0 mm 4 mps 750 mmHg 41%
11:00 +25°C° 0 mm 5 mps 750 mmHg 37%
12:00 +27°C° 0 mm 5 mps 749 mmHg 33%
13:00 +26°C° 0 mm 4 mps 749 mmHg 35%
14:00 +26°C° 0 mm 4 mps 749 mmHg 37%
15:00 +26°C° 0 mm 3 mps 748 mmHg 38%
16:00 +26°C° 0 mm 3 mps 748 mmHg 41%
17:00 +25°C° 0 mm 3 mps 748 mmHg 44%
18:00 +25°C° 0 mm 3 mps 748 mmHg 46%
19:00 +21°C° 0.1 mm 3 mps 747 mmHg 56%
20:00 +19°C° 0.1 mm 2 mps 747 mmHg 66%
21:00 +18°C° 0.1 mm 1 mps 747 mmHg 75%
22:00 +17°C° 0.1 mm 2 mps 747 mmHg 78%
23:00 +17°C° 0.1 mm 2 mps 747 mmHg 82%

28 July, Wednesday

Time Temperature Precipitation Wind Pressure Humidity
00:00 +16°C° 0.1 mm 2 mps 747 mmHg 85%
01:00 +16°C° 0.1 mm 2 mps 747 mmHg 89%
02:00 +15°C° 0.1 mm 2 mps 747 mmHg 92%
03:00 +14°C° 0.1 mm 1 mps 747 mmHg 96%
04:00 +15°C° 0 mm 2 mps 747 mmHg 94%
05:00 +15°C° 0 mm 2 mps 747 mmHg 92%
06:00 +16°C° 0 mm 2 mps 747 mmHg 90%
07:00 +18°C° 0 mm 3 mps 747 mmHg 79%
08:00 +20°C° 0 mm 3 mps 747 mmHg 68%
09:00 +21°C° 0 mm 4 mps 747 mmHg 57%
10:00 +22°C° 0 mm 4 mps 747 mmHg 50%
11:00 +23°C° 0 mm 4 mps 747 mmHg 43%
12:00 +26°C° 0 mm 4 mps 747 mmHg 36%
13:00 +26°C° 0 mm 4 mps 747 mmHg 34%
14:00 +26°C° 0 mm 4 mps 746 mmHg 32%
15:00 +26°C° 0 mm 4 mps 746 mmHg 31%
16:00 +26°C° 0 mm 3 mps 746 mmHg 34%
17:00 +25°C° 0 mm 3 mps 746 mmHg 37%
18:00 +24°C° 0 mm 2 mps 746 mmHg 40%
19:00 +21°C° 0 mm 2 mps 746 mmHg 45%
20:00 +19°C° 0 mm 2 mps 746 mmHg 51%
21:00 +16°C° 0 mm 2 mps 746 mmHg 56%
22:00 +16°C° 0 mm 1 mps 746 mmHg 58%
23:00 +15°C° 0 mm 1 mps 746 mmHg 60%

29 July, Thursday

Time Temperature Precipitation Wind Pressure Humidity
00:00 +13°C° 0 mm 0 mps 745 mmHg 62%
01:00 +14°C° 0 mm 1 mps 745 mmHg 63%
02:00 +14°C° 0 mm 1 mps 745 mmHg 63%
03:00 +14°C° 0 mm 1 mps 745 mmHg 64%
04:00 +15°C° 0 mm 1 mps 745 mmHg 61%
05:00 +16°C° 0 mm 2 mps 745 mmHg 57%
06:00 +18°C° 0 mm 2 mps 745 mmHg 54%
07:00 +20°C° 0 mm 4 mps 744 mmHg 50%
08:00 +22°C° 0 mm 5 mps 744 mmHg 46%
09:00 +26°C° 0 mm 6 mps 744 mmHg 42%
10:00 +27°C° 0 mm 6 mps 744 mmHg 39%
11:00 +29°C° 0 mm 7 mps 743 mmHg 35%
12:00 +30°C° 0 mm 7 mps 743 mmHg 32%
13:00 +30°C° 0 mm 6 mps 742 mmHg 33%
14:00 +29°C° 0 mm 6 mps 742 mmHg 35%
15:00 +29°C° 0 mm 6 mps 742 mmHg 36%
16:00 +28°C° 0.1 mm 5 mps 742 mmHg 40%
17:00 +28°C° 0.1 mm 4 mps 741 mmHg 44%
18:00 +27°C° 0.1 mm 3 mps 741 mmHg 48%
19:00 +24°C° 0.8 mm 3 mps 742 mmHg 62%
20:00 +20°C° 0.8 mm 2 mps 742 mmHg 75%
21:00 +19°C° 0.8 mm 1 mps 742 mmHg 89%
22:00 +19°C° 0.5 mm 1 mps 742 mmHg 88%
23:00 +19°C° 0.5 mm 1 mps 742 mmHg 87%
Show more

We Need Your Consent

Meteoprog and our Service Providers may store and access personal data such as cookies, device identifiers or other similar technologies on your device and process such data to personalise content and ads, as well as provide social media features and to analyse the traffic.

  • Store and/or access information on your device

    Cookies, device identifiers or other information can be stored or accessed on your device for the purposes indicated above.

  • Personalised ads and content, ad and content measurement, audience insights, and products development

    Ads and content can be personalised based on a profile. More data can be added to better personalise ads and content. Ad and content performance can be measured. Insights about the audience who saw the ads and content can be derived. Such data can be used to develop or improve user’s experience, systems and software.

By clicking ‘I Agree’ you will allow the use of indicated cookies, device identifiers, web beacons or other similar technologies. Your settings can be changed in the browser on your device.

For certain purposes, legitimate interests may be relied on, rather than consent. You can read more about this in our Privacy and Cookie Policy.